Regional Weather Roundup
Issued by NWS

Home | Current Version | Previous Version | Graphics & Text | Print | Product List | Glossary On
Versions: 1 2 3 4 5 6 7 8 9 10 11 12 13 14 15 16 17 18 19 20 21 22 23 24 25 26 27 28 29 30 31 32 33 34 35 36 37 38 39 40 41 42 43 44 45 46 47 48 49 50
000
ASUS43 KIND 271459
RWRIN

WEATHER ROUNDUP FOR INDIANA
NATIONAL WEATHER SERVICE INDIANAPOLIS IN
1100 AM EDT THU APR 27 2017

NOTE: "FAIR" INDICATES FEW OR NO CLOUDS BELOW 12,000 FEET WITH NO
SIGNIFICANT WEATHER AND/OR OBSTRUCTIONS TO VISIBILITY.

* - STATION DOES NOT REPORT WEATHER SUCH AS PRECIPITATION OR FOG.

+ - STATION NOT QUALITY CONTROLLED BY THE NATIONAL WEATHER SERVICE.
    USE DATA WITH CAUTION...ESPECIALLY DEWPOINT AND RELATIVE
    HUMIDITY OBSERVATIONS.

INZ001>003-010>013-019-020-271600-
NORTHWEST INDIANA

CITY           SKY/WX    TMP DP  RH WIND       PRES   REMARKS
GARY /AIRPORT/ CLOUDY    50  41  71 SW25G39   29.55R
KNOX *+        CLOUDY    48  30  49 SW25G31   29.54R
MICHIGAN CITY+ CLOUDY    50  43  76 SW23G30   29.53R
MONTICELLO +   CLOUDY    48  44  84 SW17G25   29.60R
RENSSELAER +   CLOUDY    46  41  81 SW22      29.59R

$$

LMZ046-743>745-271600-
SOUTHERN LAKE MICHIGAN

STATION/POSITION TIME  TEMP    WIND        PRES    WAVE
                       AIR SEA DIR/SP/G            HT
                 (UTC) (F)     (DEG/KT/KT) (MB)    (FT)
BURNS HARBOR     1440   48     230/ 16/ 24 1000.3R
MICHIGAN CITY    1430   48     220/ 21/ 23   N/A
5NW MICH CITY    1450   47 48                N/A     5

$$

INZ004-005-014>016-021>024-271600-
NORTH CENTRAL INDIANA

CITY           SKY/WX    TMP DP  RH WIND       PRES   REMARKS
ELKHART        MOSUNNY   57  46  67 SW20G29   29.51R
GOSHEN         PTSUNNY   57  46  66 SW28G36   29.53R
SOUTH BEND     CLOUDY    51  44  77 W30G36    29.53R
WARSAW +       CLOUDY    54  43  66 SW15G32   29.55R

$$

INZ006>009-017-018-025>027-271600-
NORTHEAST INDIANA

CITY           SKY/WX    TMP DP  RH WIND       PRES   REMARKS
ANGOLA *+      CLOUDY    64  55  72 S14       29.48S
FORT WAYNE     PTSUNNY   61  56  83 SW24      29.53R
KENDALLVILLE + CLOUDY    63  55  74 SW22G36   29.51R

$$

INZ028-029-035-036-043>045-051>053-271600-
WEST CENTRAL INDIANA

CITY           SKY/WX    TMP DP  RH WIND       PRES   REMARKS
CRAWFORDSVL +  CLOUDY    46  46 100 W15G23    29.64R
GREENCASTLE +  CLOUDY    50  43  76 W9G18     29.65R
LAFAYETTE      CLOUDY    48  43  82 W16G25    29.61R
TERRE HAUTE    CLOUDY    50  44  80 W15G25    29.67R

$$

INZ030>032-037>040-046>048-054>057-064-065-271600-
CENTRAL INDIANA

CITY           SKY/WX    TMP DP  RH WIND       PRES   REMARKS
CP ATTERBURY + CLOUDY    57  50  77 SW18G25   29.63R
FRANKFORT +    CLOUDY    51  47  84 W24       29.63R
GREENWOOD *+   CLOUDY    56  50  81 W10       29.63R
INDIANAPOLIS   PTSUNNY   55  49  80 SW18      29.62R
-EAGLE CREEK   CLOUDY    52  47  83 W12G20    29.61R
KOKOMO +       CLOUDY    53  46  77 W21G28    29.60R
SHELBYVILLE    CLOUDY    61  51  70 SW20G28   29.60R

$$

INZ033-034-041-042-049-050-058-059-271600-
EAST CENTRAL INDIANA

CITY           SKY/WX    TMP DP  RH WIND       PRES   REMARKS
MUNCIE         CLOUDY    61  56  83 W17G28    29.57R
RICHMOND +     CLOUDY    61  59  94 SW15      29.60F

$$

INZ060-061-067>069-081>083-085>088-271600-
SOUTHWEST INDIANA

CITY           SKY/WX    TMP DP  RH WIND       PRES   REMARKS
EVANSVILLE     CLOUDY    53  46  77 W10       29.73R
HUNTINGBURG *+ CLOUDY    53  47  79 W13       29.72R
WASHINGTON +   CLOUDY    54  45  71 W17G23    29.69R

$$

INZ062-063-066-070>080-084-089>092-271600-
SOUTH CENTRAL AND SOUTHEAST INDIANA

CITY           SKY/WX    TMP DP  RH WIND       PRES   REMARKS
BLOOMINGTON    CLOUDY    52  45  77 W12G21    29.66R
MADISON *+     CLOUDY    64  59  82 SW10G18   29.64R
SEYMOUR +      CLOUDY    59  52  77 W22G28    29.65R

$$





USA.gov is the U.S. government's official web portal to all federal, state and local government web resources and services.